Weather Roundup
Issued by NWS Chicago, IL

Home | Current Version | Previous Version | Text Only | Print | Product List | Glossary Off
Versions: 1 2 3 4 5 6 7 8 9 10 11 12 13 14 15 16 17 18 19 20 21 22 23 24 25 26 27 28 29 30 31 32 33 34 35 36 37 38 39 40 41 42 43 44 45 46 47 48 49 50

000
NZUS59 KLOT 250203
HRRLOT

CHICAGO AREA WEATHER ROUNDUP
NATIONAL WEATHER SERVICE CHICAGO/ROMEOVILLE IL
900 PM CDT TUE MAY 24 2016

NOTE: "FAIR" INDICATES FEW OR NO CLOUDS BELOW 12,000 FEET WITH NO
SIGNIFICANT WEATHER AND/OR OBSTRUCTIONS TO VISIBILITY.

* THESE STATIONS ARE NOT UNDER NWS QUALITY CONTROL. THEY ALSO MAY NOT
  REPORT WEATHER SUCH AS PRECIPITATION OR FOG.

ILZ005-006-012>014-019>023-250300-
NORTHEAST ILLINOIS

CITY           SKY/WX    TMP DP  RH WIND       PRES   REMARKS
OHARE          MOCLDY    78  52  40 S9        29.93R
MIDWAY         MOCLDY    82  51  34 S8        29.94R HX  81
AURORA         CLOUDY    77  56  48 S6        29.95R
LANSING*       PTCLDY    73  53  50 S8        29.96S
WAUKEGAN       CLOUDY    68  56  65 CALM      29.93R
DUPAGE AIRPORT PTCLDY    73  54  51 S8        29.94R
WHEELING       MOCLDY    81  52  36 S10       29.94R HX  80
MORRIS*        MOCLDY    79  56  45 S10       29.94R HX  80
$$

WIZ051-052-058>065-066-070>072-250300-
SOUTHEAST WISCONSIN

CITY           SKY/WX    TMP DP  RH WIND       PRES   REMARKS
MILWAUKEE      CLOUDY    68  61  78 CALM      29.95R
KENOSHA*       MOCLDY    71  56  58 VRB3      29.94R
RACINE*        MOCLDY    67  52  58 NE3       29.96R
BURLINGTON     MOCLDY    69  56  63 CALM      29.94S
WAUKESHA       PTCLDY    66  63  88 CALM      29.95F
$$

INZ001>003-010>013-019-020-250300-
NORTHWEST INDIANA

CITY           SKY/WX    TMP DP  RH WIND       PRES   REMARKS
GARY*          MOCLDY    81  61  50 S8        29.96R HX  81
MICHIGAN CITY* NOT AVBL
RENSSELAER*    NOT AVBL
VALPARAISO     CLEAR     76  52  43 S9        29.99R
$$

LMZ740>746-250300-
SOUTHERN LAKE MICHIGAN

STATION/POSITION TIME  SKY/WX   TEMP WIND        PRES    VSBY
                                AIR  DIR/SP/G
                 (UTC)          (F)  (DEG/KT/KT) (MB)    (MI)
HARRISON CRIB    0100            84  210/ 18/ 19   N/A
BURNHAM HARBOR   0200            81  190/  7/ 13   N/A
CALUMET HARBOR   0100                            1013.3R
BURNS HARBOR     0100            81  190/ 10/ 12 1014.6R
MICHIGAN CITY    0100            81  180/  8/  9   N/A
$$

ABBREVIATIONS USED IN REMARKS
   TC - TEMPERATURE IN CELSIUS
  WCI - WIND CHILL INDEX
   HX - HEAT INDEX
  VSB - VISIBILITY
$$




USA.gov is the U.S. government's official web portal to all federal, state and local government web resources and services.